Location: Guadanolo
(41.9167°N, 12.9333°E)
Time: 04:55:39
(UTC+00:00)

Cosmos 2219 Rocket - Pass Details

Date: 16 September 2019
Orbit: 829 x 845 km, 71.0° (Epoch: 17 October)

Event Time Altitude Azimuth Distance (km) Brightness Sun altitude
Rises 19:08:56 0° 332° (NNW) 3,380 6.2 -21.0°
Reaches altitude 10° 19:11:24 10° 329° (NNW) 2,443 5.4 -21.4°
Maximum altitude 19:16:53 59° 251° (WSW) 959 2.6 -22.3°
Enters shadow 19:20:09 24° 180° (S) 1,650 3.5 -22.9°
